Milwaukee, WI

5:47 PM CDT on June 27, 2017 (GMT -0500)
Gen Mitchell International

Weather History for KMKE - November, 2013

Change the Weather History Date:

Wednesday, November 27, 2013

  Actual Average Record
Temperature  
Mean Temperature 21 °F 33 °F  
Max Temperature 28 °F 40 °F 67 °F (1990)
Min Temperature 13 °F 27 °F 0 °F (1872)
Degree Days  
Heating Degree Days 44 32  
Month to date heating degree days 726 684  
Since 1 July heating degree days 1266 1269  
Cooling Degree Days 0 0  
Month to date cooling degree days 0 0  
Year to date cooling degree days 688 641  
Moisture  
Dew Point 9 °F    
Average Humidity 56    
Maximum Humidity 70    
Minimum Humidity 42    
Precipitation  
Precipitation T in 0.09 in 1.22 in (1990)
Month to date precipitation 2.97 2.45  
Year to date precipitation 38.23 32.46  
Snow  
Snow T in 0.20 in 9.70 in (1995)
Month to date snowfall 2.0 1.9  
Since 1 July snowfall 2.0 2.2  
Since 1 September snowfall 2.0 2.2  
Snow Depth T in    
Sea Level Pressure  
Sea Level Pressure 30.23 in    
Wind  
Wind Speed 10 mph (NW)    
Max Wind Speed 20 mph    
Max Gust Speed 25 mph    
Visibility 10 miles    
Events Snow    
T = Trace of Precipitation, MM = Missing Value Source: NWS Daily Summary

Daily Weather History Graph

Daily Weather History Graph

Search for Another Location

Airport or City:

Trip Planner

Search our weather history database for the weather conditions in past years. The results will help you decide how hot, cold, wet, or windy it might be!

Date:

Astronomy

Nov. 27, 2013 Rise Set
Actual Time 6:58 AM CST 4:19 PM CST
Civil Twilight 6:27 AM CST 4:51 PM CST
Nautical Twilight 5:52 AM CST 5:26 PM CST
Astronomical Twilight 5:18 AM CST 6:00 PM CST
Moon 12:52 AM CST 1:04 PM CST
Length of Visible Light 10h 23m
Length of Day
9h 20m
Waning Crescent, 31% of the Moon is Illuminated
Nov 27
Waning Crescent
Dec 2
New
Dec 9
First Quarter
Dec 17
Full
Dec 25
Last Quarter

Hourly Weather History & Observations

Time (CST) Temp. Windchill Dew Point Humidity Pressure Visibility Wind Dir Wind Speed Gust Speed Precip Events Conditions
12:52 AM 15.1 °F 1.1 °F 3.9 °F 61% 30.18 in 10.0 mi NW 12.7 mph 21.9 mph N/A   Partly Cloudy
1:52 AM 14.0 °F 0.5 °F 3.9 °F 64% 30.19 in 10.0 mi NW 11.5 mph - N/A   Clear
2:52 AM 12.9 °F -2.2 °F 3.9 °F 67% 30.19 in 10.0 mi NW 13.8 mph - N/A   Clear
3:52 AM 12.9 °F -0.9 °F 3.9 °F 67% 30.19 in 10.0 mi NW 11.5 mph - N/A   Clear
4:52 AM 12.9 °F -2.8 °F 5.0 °F 71% 30.21 in 10.0 mi NW 15.0 mph 20.7 mph N/A   Clear
5:52 AM 12.9 °F -0.2 °F 5.0 °F 71% 30.21 in 10.0 mi NW 10.4 mph 20.7 mph N/A   Partly Cloudy
6:52 AM 12.9 °F -1.6 °F 5.0 °F 71% 30.22 in 10.0 mi WNW 12.7 mph - N/A   Partly Cloudy
7:52 AM 15.1 °F 1.1 °F 7.0 °F 70% 30.23 in 10.0 mi NW 12.7 mph - N/A   Partly Cloudy
8:52 AM 19.0 °F 6.1 °F 9.0 °F 65% 30.24 in 10.0 mi NNW 12.7 mph 20.7 mph N/A   Partly Cloudy
9:52 AM 21.0 °F 8.6 °F 10.0 °F 63% 30.24 in 10.0 mi NW 12.7 mph - N/A   Partly Cloudy
10:52 AM 23.0 °F 8.7 °F 10.9 °F 60% 30.22 in 10.0 mi NNW 18.4 mph - N/A   Partly Cloudy
11:52 AM 25.0 °F 13.6 °F 10.9 °F 55% 30.21 in 10.0 mi NW 12.7 mph 21.9 mph N/A   Partly Cloudy
12:52 PM 26.1 °F 14.0 °F 10.9 °F 53% 30.20 in 10.0 mi NW 15.0 mph - N/A   Partly Cloudy
1:52 PM 28.0 °F 18.6 °F 10.0 °F 47% 30.20 in 10.0 mi NW 10.4 mph - N/A   Partly Cloudy
2:52 PM 28.0 °F 18.6 °F 9.0 °F 45% 30.21 in 10.0 mi NNW 10.4 mph 19.6 mph N/A   Partly Cloudy
3:52 PM 26.1 °F 16.2 °F 8.1 °F 47% 30.23 in 10.0 mi NNW 10.4 mph - N/A   Scattered Clouds
4:52 PM 25.0 °F 18.1 °F 8.1 °F 49% 30.24 in 10.0 mi NW 5.8 mph - N/A   Scattered Clouds
5:52 PM 25.0 °F 20.7 °F 9.0 °F 51% 30.25 in 10.0 mi WNW 3.5 mph - N/A   Mostly Cloudy
6:52 PM 25.0 °F 18.1 °F 9.0 °F 51% 30.25 in 10.0 mi WNW 5.8 mph - N/A   Overcast
7:52 PM 25.0 °F 19.3 °F 10.0 °F 53% 30.25 in 10.0 mi WSW 4.6 mph - N/A   Overcast
8:52 PM 24.1 °F 16.0 °F 10.0 °F 55% 30.25 in 10.0 mi West 6.9 mph - N/A   Overcast
9:52 PM 24.1 °F 17.0 °F 10.9 °F 57% 30.26 in 10.0 mi NW 5.8 mph - 0.00 in Snow Light Snow
10:19 PM 23.0 °F 15.8 °F 15.1 °F 72% 30.23 in 2.0 mi WNW 5.8 mph - 0.00 in Snow Light Snow
10:35 PM 21.9 °F 14.5 °F 17.1 °F 82% 30.23 in 3.0 mi WNW 5.8 mph - 0.00 in Snow Light Snow
10:52 PM 21.9 °F 17.2 °F 17.1 °F 82% 30.26 in 9.0 mi NW 3.5 mph - 0.00 in   Overcast
11:52 PM 23.0 °F 18.4 °F 17.1 °F 78% 30.26 in 10.0 mi West 3.5 mph - N/A   Overcast